Wind_Speed
12 12 12 11 11 10 10 10 9 9 9 9 9 10 10 11 11 10 10 10 11 12 12 12 12 10 9 7 5 6 6 7 6 5 8 13 13 10 13 15 14 13 10 8 6 5 7 7 6 6 5 5 7 7 7 7 8 9 8 5 5 6 5 6 5 6 5 5 7 5 4 4 4 4 6 9 11 11 11 10 10 11 10 9 10 12 14 15
13 13 13 12 12 11 10 10 10 9 9 9 9 9 10 10 11 11 11 11 10 11 12 13 13 12 11 8 7 6 6 8 6 7 11 14 11 9 13 15 15 14 11 9 8 7 8 8 7 6 4 4 7 6 7 7 8 9 7 5 6 6 6 7 7 7 6 6 8 7 6 6 6 6 6 8 11 13 13 12 11 12 12 11 12 14 14 16
13 13 13 13 13 12 11 10 10 10 9 9 9 9 9 10 10 11 11 11 11 11 11 12 13 14 12 10 8 6 7 7 7 10 11 10 9 9 14 16 15 15 14 13 12 11 10 9 9 7 5 5 7 6 7 7 7 8 7 5 5 6 7 8 8 9 8 8 9 8 8 8 8 8 7 7 10 14 15 14 12 12 13 14 14 16 16 17
13 13 13 13 13 13 12 11 10 10 10 10 10 9 9 10 10 10 11 11 11 11 11 12 13 14 14 12 10 8 8 7 10 12 8 9 10 11 15 17 17 18 17 16 14 12 10 9 8 8 7 6 6 6 6 6 6 6 7 5 4 6 8 9 10 10 9 9 8 8 9 9 9 9 9 9 9 12 15 15 14 13 14 15 15 17 17 17
12 12 13 13 13 13 12 11 11 11 11 11 11 10 10 10 10 10 10 11 11 12 12 12 12 14 14 14 12 10 8 7 11 12 9 11 12 14 17 18 19 18 16 14 13 12 10 10 8 8 7 5 5 4 4 4 4 4 6 6 6 6 8 9 10 11 10 9 8 8 8 9 9 9 10 11 10 11 14 15 16 15 16 16 15 17 18 17
11 12 12 12 13 13 12 12 11 11 11 11 11 11 11 11 10 10 10 11 11 12 12 12 12 13 14 15 14 12 11 8 10 13 12 14 14 16 19 19 20 18 15 13 12 12 11 10 8 7 6 5 4 3 2 2 2 3 4 6 7 7 9 9 10 11 10 9 9 9 9 9 9 9 10 12 13 12 15 17 18 18 19 18 16 17 17 17
10 11 11 12 12 12 12 11 11 10 10 11 12 12 12 12 11 11 10 11 11 12 12 13 13 13 14 16 15 14 14 11 10 13 14 15 14 18 21 21 21 18 15 13 11 11 11 11 8 5 5 4 2 1 0 0 1 3 4 5 7 7 9 10 11 12 11 10 9 9 10 10 10 9 9 10 14 14 16 19 20 20 20 20 18 17 17 17
9 10 10 11 11 11 10 10 10 10 10 10 12 12 12 12 12 11 11 11 11 12 13 13 13 13 14 16 17 15 16 13 11 13 16 15 15 19 23 23 21 18 14 11 10 10 10 10 7 4 3 2 1 1 1 2 2 3 5 5 6 6 9 12 12 13 13 11 11 10 10 11 10 10 9 9 13 15 17 20 20 21 21 21 20 19 19 19
9 9 9 10 10 10 9 9 9 9 9 10 12 12 12 12 12 12 12 12 12 12 13 13 13 13 14 16 18 16 16 14 12 15 16 15 15 19 23 22 19 16 13 11 10 9 9 9 8 6 4 4 2 2 3 3 2 4 6 5 5 6 9 12 12 14 14 13 13 13 11 11 12 9 8 9 13 16 18 21 21 22 21 22 23 22 21 21
9 9 9 9 9 9 9 8 8 9 9 10 11 12 12 11 11 12 13 13 12 13 13 13 14 14 14 16 18 17 17 15 14 16 16 14 14 17 21 21 18 15 12 11 9 9 9 10 11 9 6 6 3 4 6 4 3 5 6 4 4 5 8 12 12 14 16 15 15 16 13 10 12 8 6 8 12 16 18 22 22 22 22 22 24 24 22 22
9 9 9 10 9 9 9 8 9 9 9 9 10 11 11 11 11 12 13 13 13 13 13 13 14 14 15 17 20 19 18 17 16 16 17 14 13 16 19 20 19 16 13 11 9 9 11 12 11 8 7 6 5 6 7 6 5 6 4 3 4 6 7 12 14 14 17 17 17 19 13 7 11 11 6 8 11 16 19 22 23 23 24 22 23 24 23 23
10 10 10 10 10 10 9 9 9 9 9 9 9 10 10 10 10 11 12 13 13 13 14 14 14 14 15 17 21 21 19 18 17 17 17 15 16 18 18 20 21 18 15 13 11 11 13 12 9 8 7 6 5 6 6 6 6 6 4 2 5 7 7 13 15 15 17 18 20 20 11 6 10 14 10 8 10 15 20 22 24 24 24 24 25 26 24 24
10 10 10 11 11 11 10 10 10 10 9 8 8 9 9 9 9 10 11 13 13 14 14 14 14 15 16 18 21 21 20 19 19 18 17 17 19 19 19 20 21 20 17 15 14 13 13 11 9 8 8 8 8 7 5 6 6 6 5 4 6 6 8 12 15 16 19 19 21 19 10 8 13 16 12 7 10 15 20 21 23 23 24 25 26 27 26 25
10 10 10 11 12 12 11 11 11 10 9 8 8 8 8 8 8 8 10 13 13 14 14 15 14 15 17 19 21 21 20 19 20 19 18 18 19 19 19 20 22 20 18 17 16 14 13 12 10 8 8 9 9 7 6 6 6 5 5 6 6 5 8 13 15 17 20 20 22 16 9 10 15 17 12 6 11 14 19 21 22 22 23 25 25 26 26 25
11 11 11 12 12 12 12 12 11 10 9 8 8 8 8 7 8 8 9 12 13 14 15 15 15 16 18 19 20 21 20 20 21 21 19 19 18 19 20 21 22 22 19 18 17 16 14 13 11 9 8 8 7 7 6 6 5 4 4 4 5 6 8 13 17 18 20 21 21 15 10 11 14 19 14 6 11 14 18 19 22 22 23 25 25 25 25 24
11 11 11 12 12 12 12 12 11 10 9 8 8 7 7 7 7 7 8 11 13 14 15 16 16 17 18 19 20 21 21 21 23 22 21 21 20 19 20 21 22 22 21 19 18 17 15 13 11 9 8 7 6 7 8 7 4 2 4 5 6 8 8 10 18 21 21 21 19 17 15 11 13 19 15 4 11 14 17 18 21 23 23 24 24 25 25 24
12 11 12 13 13 13 12 12 11 9 8 8 8 7 6 6 6 6 8 11 13 14 16 16 18 18 18 18 20 22 22 22 23 23 22 21 21 20 20 20 21 22 21 20 19 17 15 13 11 8 8 8 6 6 6 4 3 2 6 8 8 9 9 9 15 21 23 21 16 17 17 13 13 17 14 3 10 14 17 17 20 24 24 26 26 26 26 26
13 12 12 13 13 13 12 11 10 9 8 8 7 6 5 5 5 6 8 11 13 14 14 15 18 16 13 17 22 24 25 23 23 23 22 21 21 21 21 21 21 22 21 20 18 17 14 12 11 9 9 10 8 7 6 2 3 7 9 11 11 10 10 11 12 16 21 21 16 15 14 14 15 15 14 5 8 13 16 18 20 23 25 27 28 28 27 27
14 13 13 13 13 12 12 11 10 8 8 8 7 5 4 4 4 6 9 12 14 15 14 16 20 16 11 17 23 25 26 24 23 22 21 21 21 21 21 21 21 21 21 18 17 17 14 11 12 12 11 11 9 8 8 6 8 10 11 12 13 13 13 13 11 14 19 18 13 12 11 13 15 14 14 7 6 12 16 19 21 23 26 29 29 29 28 28
14 13 13 13 12 12 11 10 9 8 7 7 6 4 4 4 4 6 9 13 15 18 17 18 23 20 15 17 22 25 26 25 23 23 21 20 21 20 20 19 19 20 20 15 14 16 14 12 14 13 10 9 8 8 9 9 9 10 11 12 12 13 13 13 11 15 21 17 9 12 14 14 14 13 13 7 5 10 15 19 22 23 25 29 30 28 29 29
14 13 13 13 12 11 10 9 9 7 7 7 5 4 5 7 6 7 11 14 15 17 17 18 23 21 16 17 23 26 27 26 24 23 22 20 20 19 19 19 16 17 18 16 14 15 14 14 16 12 9 8 8 7 7 7 7 9 11 12 11 11 13 14 15 18 22 18 10 14 16 12 13 12 11 7 4 9 13 18 22 23 25 28 30 29 31 31
13 13 12 12 11 10 9 9 8 7 6 5 4 5 7 8 8 9 12 14 15 16 16 17 22 21 15 16 22 25 27 27 26 25 23 23 22 18 17 18 15 12 16 18 15 13 15 17 15 10 9 10 9 7 6 6 8 9 10 11 10 11 13 14 18 21 23 18 10 13 14 10 12 9 7 6 4 9 12 18 21 22 24 29 32 32 33 33
13 12 12 12 11 9 9 8 7 6 5 3 4 7 9 9 10 11 12 12 13 15 15 16 21 20 15 16 21 24 26 26 27 28 26 24 22 20 19 18 15 11 14 18 16 13 12 12 11 11 11 10 8 7 6 6 8 9 9 9 9 11 14 13 16 22 23 18 11 13 14 9 9 8 6 5 4 9 13 19 22 23 25 28 32 34 34 33
12 12 11 11 10 9 8 7 6 4 3 2 6 9 11 11 12 11 13 11 10 13 13 14 19 18 14 15 20 22 24 26 26 28 27 25 24 23 20 17 14 13 14 17 17 15 10 6 5 6 9 9 7 7 6 6 7 7 8 8 10 12 15 14 16 19 19 16 14 17 13 8 7 10 6 3 5 9 13 18 23 24 25 27 30 34 35 34
11 11 10 10 9 8 7 5 4 2 2 4 8 11 12 13 12 12 14 11 7 10 10 11 15 14 11 13 16 19 22 25 26 26 26 25 24 21 18 18 17 13 13 15 16 17 13 9 6 3 5 6 5 6 5 6 7 7 5 5 11 14 16 16 15 16 13 9 12 16 9 4 6 10 6 2 5 9 12 18 22 23 24 27 28 31 35 34
10 9 9 9 9 8 5 3 1 1 4 6 10 14 14 13 12 14 15 11 8 9 8 10 11 10 11 11 13 16 16 19 23 24 23 23 22 19 16 18 18 13 12 13 14 17 15 13 12 8 6 7 6 7 7 7 8 6 4 7 13 15 16 15 12 12 10 8 12 12 6 3 5 7 7 6 4 9 12 17 23 24 25 28 28 31 35 36
9 8 8 9 8 6 3 1 2 4 6 9 13 14 13 12 13 15 13 9 8 8 8 12 11 10 12 10 12 14 10 14 21 22 22 21 20 19 15 13 16 15 13 13 12 15 16 15 16 14 11 10 9 8 6 6 8 7 6 11 14 14 13 13 9 9 10 12 12 8 6 8 5 5 9 9 3 8 14 20 24 25 26 27 31 35 37 36
7 6 7 7 6 4 1 2 4 7 8 11 14 14 13 12 14 13 7 3 7 8 10 13 11 11 11 10 14 14 8 9 15 20 21 19 17 18 15 12 13 13 14 17 13 10 12 12 12 11 10 10 10 8 6 7 9 8 10 13 14 13 12 10 8 8 9 10 8 4 5 9 4 3 7 8 5 6 13 24 26 25 26 28 32 37 37 35
5 5 6 6 4 3 3 6 9 10 11 13 13 12 12 11 12 9 2 2 8 9 10 10 9 11 11 10 14 13 9 8 10 16 20 19 18 17 14 12 12 11 14 18 16 11 8 9 9 9 8 8 8 8 8 9 10 10 12 14 13 12 11 9 8 9 9 8 5 4 4 7 4 2 5 6 7 6 9 23 30 26 26 28 32 36 37 35
4 4 5 4 3 4 8 10 12 13 12 13 12 11 10 9 9 4 2 6 9 9 12 10 9 11 12 12 12 9 10 12 10 14 19 19 19 18 14 13 12 11 12 16 19 16 10 9 11 11 10 10 10 10 10 11 12 11 13 13 12 11 10 9 8 8 8 5 4 7 7 8 5 3 5 4 5 5 5 16 30 30 26 29 32 35 36 36
3 4 4 3 4 8 11 12 12 12 11 11 10 10 9 8 3 3 2 9 8 10 13 10 10 13 15 13 10 10 12 10 7 11 18 17 16 16 13 12 13 12 11 14 18 18 16 15 15 14 13 13 12 12 11 12 12 11 11 10 10 9 8 9 7 6 6 3 5 9 10 8 6 2 2 3 4 5 3 5 20 32 30 29 32 33 34 35
2 3 3 4 7 11 11 11 11 10 12 11 11 12 10 6 3 3 7 9 7 11 11 9 12 15 16 13 8 10 12 8 6 10 15 15 15 16 15 12 12 13 13 14 15 15 16 17 16 15 15 15 13 12 11 10 10 9 9 9 9 8 6 6 5 5 5 4 6 10 11 8 7 5 4 3 5 8 5 1 7 24 32 29 30 31 32 34
1 2 3 5 9 11 11 11 10 10 12 11 12 13 7 2 2 6 7 5 7 12 9 9 13 13 15 13 9 11 11 7 7 11 13 13 13 16 16 14 12 12 11 11 13 13 13 15 17 16 15 16 15 12 10 8 7 8 8 8 7 6 5 4 4 4 4 5 7 10 11 9 6 5 7 4 4 7 9 4 3 14 27 27 26 30 32 33
2 3 4 7 10 11 11 11 11 12 12 12 13 10 4 1 5 7 5 5 11 13 9 10 13 12 14 12 9 11 10 7 8 10 12 13 13 15 17 16 14 12 9 7 9 11 11 11 14 16 14 12 13 14 12 9 9 9 8 8 8 8 6 5 5 5 7 9 10 9 9 9 9 8 8 8 5 7 11 11 7 13 22 24 25 30 32 32
3 4 5 8 9 10 11 12 13 13 12 14 13 6 2 4 6 6 5 7 11 10 9 12 12 12 13 10 10 12 10 8 9 10 11 13 13 13 15 17 16 15 12 10 8 8 10 9 8 12 13 12 10 10 11 11 11 9 8 9 9 7 6 8 9 9 11 12 8 6 7 9 10 8 11 15 10 5 13 16 15 15 22 25 26 29 32 32
4 4 6 9 10 11 11 12 14 13 14 16 11 4 3 6 6 5 6 9 10 9 11 13 11 12 12 10 11 13 11 8 9 10 11 11 12 12 12 13 16 17 16 12 8 7 10 9 7 8 12 13 11 8 9 11 8 5 6 7 6 6 7 11 10 8 10 9 5 7 10 10 8 5 11 20 17 7 9 17 20 19 22 27 28 30 32 33
5 5 6 9 10 11 11 12 13 12 14 15 8 4 7 7 6 8 9 10 10 11 12 11 11 12 10 11 12 13 12 9 9 10 9 10 10 12 13 13 13 17 18 15 11 8 9 8 7 8 10 11 13 11 11 12 10 8 7 5 6 7 7 8 8 7 7 6 5 9 11 11 9 7 9 15 16 14 8 13 23 23 22 27 31 32 33 34
6 5 7 9 10 11 11 11 11 11 15 14 7 7 11 7 7 11 12 11 11 13 11 6 8 10 8 10 11 13 14 11 11 11 9 9 7 7 11 13 13 15 17 17 14 8 7 10 8 9 10 8 10 13 13 13 13 12 10 9 9 9 6 4 6 6 6 4 5 9 10 10 11 11 11 10 9 13 11 11 24 26 25 27 31 33 32 32
7 6 7 9 10 12 12 10 10 11 13 10 4 6 10 9 10 12 13 13 13 11 7 4 6 8 8 8 9 13 15 12 11 11 9 8 6 5 7 10 11 12 14 17 16 10 7 10 7 5 7 7 8 13 15 14 13 12 12 11 10 10 9 8 8 8 7 5 4 7 8 8 13 14 13 12 7 9 10 9 24 29 27 26 30 35 32 32
8 7 7 10 11 12 12 10 9 9 7 5 5 7 9 11 11 11 12 13 12 9 5 3 5 6 7 7 8 12 15 13 10 10 9 7 6 4 3 6 8 9 12 15 16 13 8 9 9 4 5 9 12 14 15 12 10 10 10 10 9 9 9 10 10 9 8 6 4 5 6 7 13 14 12 13 9 6 6 7 18 25 26 25 28 33 32 30
9 7 7 10 12 12 13 10 9 8 5 5 7 9 9 10 10 11 11 11 12 10 8 7 6 5 6 6 7 9 12 13 11 10 9 8 7 4 2 4 7 8 11 14 14 14 10 9 11 9 7 11 12 10 11 9 7 7 7 8 8 8 7 8 7 7 8 7 6 6 7 7 11 14 13 13 12 7 1 4 8 14 22 25 27 31 29 27
9 8 7 10 12 12 13 10 9 9 7 5 7 8 9 9 9 10 10 10 11 10 10 9 7 6 6 5 5 8 10 11 11 11 10 9 7 4 2 3 4 6 9 12 13 13 12 10 11 12 11 12 11 8 9 12 12 12 12 12 11 10 9 9 7 6 7 7 6 7 7 5 9 15 14 13 14 10 2 8 11 11 14 20 24 26 25 24
11 11 9 10 12 13 12 9 7 9 8 8 8 8 8 8 8 8 9 10 9 8 7 7 6 5 4 3 4 7 8 8 10 10 10 9 7 8 10 8 6 7 9 9 9 11 12 11 11 12 11 12 13 10 11 14 16 15 14 14 14 12 10 10 8 8 8 7 7 7 5 3 9 15 15 13 14 12 4 8 14 20 22 22 19 17 18 20
10 11 9 9 11 14 12 8 7 9 10 10 8 7 7 8 8 8 8 9 8 8 7 6 6 5 4 4 5 6 6 3 6 8 7 7 7 8 11 11 11 11 10 9 9 10 11 10 10 10 8 9 12 12 12 14 15 13 10 9 12 13 11 11 9 9 11 10 7 7 6 5 8 13 13 11 11 11 6 4 13 19 24 24 21 16 16 19
10 8 8 9 10 13 14 13 12 11 12 11 8 7 7 6 7 7 7 8 8 8 7 5 6 6 5 6 6 5 5 4 3 6 4 4 5 4 4 7 10 11 12 13 11 10 9 9 10 11 8 7 8 8 8 8 10 10 7 5 7 9 12 11 9 8 9 8 7 8 8 7 7 10 11 8 6 7 6 2 12 17 20 21 21 20 18 20
11 8 8 8 9 12 15 16 15 12 12 11 8 8 8 6 7 8 7 7 7 7 7 6 6 6 6 6 5 4 4 4 4 4 4 4 4 2 2 1 5 7 10 15 16 13 9 9 12 13 12 7 3 1 1 2 4 5 5 5 6 7 10 11 9 8 8 8 7 7 7 6 7 10 11 6 3 4 4 2 9 16 18 18 18 18 19 19
12 11 10 9 8 10 12 14 15 14 13 12 10 10 10 7 7 7 7 7 6 6 6 5 5 5 5 6 4 3 3 4 4 5 5 5 4 3 1 3 6 6 8 12 16 15 12 11 12 14 15 11 7 6 5 5 6 6 6 7 7 7 9 11 11 9 9 9 7 5 6 6 8 11 10 3 2 3 2 2 7 12 16 18 18 19 19 20
14 13 12 11 10 9 11 14 16 15 14 14 12 11 10 8 7 7 7 7 7 6 5 4 6 7 6 6 5 3 3 3 4 5 5 5 4 2 2 4 9 8 5 9 15 16 13 10 9 10 12 11 9 9 8 7 8 8 7 7 7 8 8 10 10 9 10 10 7 7 10 9 9 9 7 1 5 4 1 1 6 11 14 17 19 20 20 21
15 13 13 13 12 11 11 13 15 14 13 14 13 13 12 11 10 10 8 7 7 7 7 5 6 8 7 7 7 5 5 4 4 5 6 6 5 3 1 2 8 9 2 9 15 18 13 8 7 8 9 10 9 9 9 8 8 7 7 7 7 7 7 8 8 8 10 10 8 9 11 10 8 7 5 3 7 6 2 2 5 11 14 15 18 20 22 21
15 14 14 13 13 12 11 11 13 13 12 12 12 13 14 13 12 12 10 9 8 8 9 8 8 8 7 8 8 7 7 7 6 6 7 7 5 4 3 2 5 8 5 6 10 14 12 7 7 6 7 8 8 8 7 7 6 6 5 5 6 7 7 7 7 7 8 8 8 9 9 7 8 10 6 5 8 6 4 3 4 10 14 15 16 18 21 22
14 15 14 13 14 14 12 11 12 11 10 11 11 12 14 14 14 14 13 13 12 11 11 11 10 9 8 8 9 8 7 8 7 6 6 5 5 4 4 4 4 5 4 3 4 8 8 8 7 6 8 8 6 6 7 6 5 6 5 3 3 4 5 5 5 6 7 7 7 7 5 6 10 13 6 7 9 7 5 4 4 8 13 15 16 17 17 19
13 14 15 14 14 14 14 13 12 10 10 14 14 14 14 14 14 14 12 12 14 14 13 14 13 10 7 8 11 10 9 9 7 7 6 5 5 5 4 4 5 4 3 2 2 4 6 8 7 7 9 7 6 6 7 6 7 9 8 6 4 3 5 5 5 7 8 7 6 4 4 8 10 10 5 8 11 10 7 4 4 6 10 14 17 17 15 14
Wind_Direction
310 308 307 305 303 300 297 295 292 290 287 283 279 275 270 265 261 257 255 250 247 243 239 234 227 227 227 224 214 210 216 220 218 204 199 203 202 191 185 179 170 166 157 151 142 134 133 127 124 111 105 107 103 97 92 85 80 73 69 62 43 45 26 10 1 340 337 328 317 321 329 305 290 268 222 210 211 209 202 194 187 185 184 186 177 171 170 164
307 306 305 304 302 299 295 292 289 288 286 285 283 279 274 269 263 258 254 250 247 243 239 233 226 224 224 220 211 207 213 217 210 199 205 203 195 184 184 177 167 158 144 144 150 156 156 145 136 119 107 107 101 98 92 82 74 69 68 60 43 39 11 1 353 337 332 312 306 310 307 290 279 267 241 216 211 211 207 201 194 188 186 189 178 173 174 166
304 303 302 302 300 298 294 290 286 284 283 283 281 280 277 272 267 261 255 251 245 241 238 232 227 223 220 215 209 204 209 212 203 206 208 192 180 178 179 175 166 157 150 159 168 168 163 151 139 128 120 112 103 97 90 83 74 65 63 55 36 28 7 355 347 336 329 316 310 307 302 293 278 258 244 228 216 213 208 203 200 193 190 191 179 173 176 170
301 300 299 299 298 297 293 288 284 282 280 279 278 278 276 273 268 262 257 252 245 240 236 231 226 220 216 213 208 202 203 209 208 210 200 178 177 174 176 174 167 167 168 171 172 167 160 149 138 129 126 115 109 103 91 86 75 63 62 52 21 16 7 351 341 335 330 324 317 306 303 298 284 261 241 227 219 217 210 203 200 196 194 194 184 175 176 172
298 297 296 296 296 296 294 291 286 282 280 278 277 275 273 272 268 263 257 251 245 240 235 230 225 218 214 210 204 198 191 202 214 208 187 181 181 173 175 173 172 177 179 176 171 163 155 148 140 127 123 120 115 105 92 96 81 54 48 33 8 6 2 349 339 337 335 330 322 311 305 302 297 276 246 226 215 213 207 202 199 195 191 194 190 179 177 174
298 296 296 296 296 296 295 293 288 284 282 280 278 275 272 269 265 262 256 250 244 238 234 229 224 217 212 206 202 196 187 190 208 203 189 185 182 177 175 173 178 183 182 180 175 164 152 146 139 129 128 128 130 116 89 110 88 47 32 20 5 357 355 351 350 350 345 337 328 320 313 305 301 289 261 230 217 212 201 197 196 194 189 190 192 184 179 175
304 302 300 299 298 298 296 294 292 289 286 282 279 275 271 266 261 258 253 248 241 236 232 227 223 217 209 204 200 198 196 199 203 197 193 189 183 179 176 175 182 185 182 180 177 167 155 149 144 140 137 132 150 162 109 281 48 42 33 22 5 357 3 7 8 5 356 347 336 327 321 312 300 285 269 234 222 217 202 195 193 192 189 186 186 183 181 178
314 311 309 306 303 300 298 296 294 292 289 283 279 275 271 266 259 253 247 244 238 233 229 225 221 215 208 202 197 197 201 205 202 193 194 193 185 181 179 179 182 184 179 177 177 172 164 161 161 160 159 181 217 247 297 316 333 19 28 25 10 12 21 22 21 14 3 354 347 336 328 327 316 284 265 234 220 215 203 197 193 193 190 184 183 181 181 180
324 322 319 316 311 305 301 298 296 294 290 282 278 276 273 267 258 250 242 238 233 228 225 221 219 213 207 201 195 198 202 203 200 193 193 194 188 184 182 181 182 180 173 171 176 172 169 176 184 189 201 220 251 303 307 333 333 356 22 28 19 33 31 26 24 15 6 360 356 348 337 340 342 308 269 241 217 212 206 201 197 195 190 185 184 180 179 181
328 327 328 327 321 311 304 301 301 299 293 284 278 276 273 267 257 248 239 234 228 223 221 218 215 210 205 198 193 199 203 200 197 193 193 192 186 182 182 183 182 176 168 170 171 168 171 183 196 203 210 223 250 290 293 308 304 338 22 41 25 31 24 19 16 9 5 1 357 353 341 336 351 339 268 243 216 208 207 204 200 197 192 189 187 180 178 180
326 327 330 332 326 316 309 308 308 304 297 286 277 273 271 266 257 248 238 232 225 219 216 214 211 206 203 196 193 198 199 196 197 194 191 187 179 177 183 184 180 174 173 172 170 173 182 189 196 204 217 230 252 284 290 295 305 336 14 56 15 4 11 13 7 2 1 359 355 351 341 325 351 351 287 245 215 206 207 205 202 199 193 189 188 184 179 176
322 325 329 329 325 320 317 316 314 308 299 286 276 272 269 267 260 249 238 231 223 216 212 210 208 204 200 196 196 198 196 194 196 195 189 180 173 174 182 185 179 174 174 173 174 182 190 193 193 199 206 216 242 276 291 299 315 335 345 28 8 351 348 1 2 358 358 358 354 351 351 338 346 347 317 258 218 206 205 204 202 200 193 187 187 187 182 173
320 324 327 325 322 323 323 321 318 313 303 290 282 278 275 272 264 251 238 229 220 213 208 206 204 201 198 195 197 198 195 193 194 194 187 177 172 174 180 183 179 174 171 173 178 185 192 193 195 201 205 214 236 256 278 305 321 337 333 332 355 340 314 341 359 357 355 359 354 351 0 352 338 342 330 258 220 206 202 203 203 198 190 189 189 186 182 173
320 325 327 322 321 324 324 322 321 316 308 300 294 288 283 274 263 251 236 226 217 209 203 201 200 198 196 195 196 196 194 192 193 193 184 174 173 176 178 180 179 177 174 177 182 186 191 194 197 204 213 222 239 258 281 307 324 346 342 323 331 331 314 333 354 357 353 354 356 354 352 344 338 342 337 245 214 206 199 200 204 199 189 191 192 186 180 173
323 326 326 322 322 324 324 323 321 317 312 307 302 296 289 277 264 248 232 222 212 204 199 196 195 194 194 195 196 195 192 190 191 192 183 176 179 180 180 179 180 181 180 183 188 191 194 196 198 205 220 232 247 269 296 307 309 333 337 313 308 328 333 333 342 354 353 348 355 1 351 340 339 343 339 238 205 203 197 198 204 202 191 190 191 184 179 172
326 327 326 323 322 324 322 321 321 318 314 309 305 300 290 280 265 243 228 216 204 198 195 192 192 192 192 195 195 193 190 189 190 190 185 182 185 186 184 182 182 183 184 188 192 195 199 202 203 210 224 237 257 280 299 290 262 283 324 318 315 327 335 330 333 343 348 346 348 353 352 345 335 339 340 242 199 198 194 196 202 201 194 189 187 184 180 175
326 329 328 323 324 324 322 322 321 318 315 310 305 300 289 277 260 235 219 205 196 193 191 190 190 189 191 193 192 191 190 190 190 190 189 188 192 192 188 186 186 185 187 192 195 199 203 208 210 218 236 240 245 267 282 266 221 291 326 321 318 328 332 335 334 332 340 348 342 342 348 343 333 338 342 288 198 196 192 193 199 198 192 188 185 184 182 177
325 329 328 325 325 324 323 323 322 320 316 309 302 296 283 268 248 223 204 192 187 186 187 190 186 184 197 196 189 189 190 189 189 190 191 193 198 198 192 190 189 188 190 194 200 203 205 214 219 224 240 243 240 242 243 250 324 319 324 323 322 329 328 336 339 326 334 344 337 336 341 334 333 339 341 316 205 197 194 193 197 194 188 187 185 183 182 178
325 330 329 326 326 325 324 324 323 322 316 306 297 286 267 246 223 205 192 183 180 178 181 188 181 176 198 200 191 190 189 187 187 188 191 195 198 199 196 194 191 190 191 194 203 208 207 214 225 230 234 237 242 238 241 273 307 311 315 317 319 321 320 329 332 323 335 341 325 322 326 324 330 332 333 322 215 203 198 196 195 191 187 186 186 184 182 178
324 329 329 326 327 326 325 325 326 322 314 303 286 262 227 191 177 185 183 179 182 182 181 183 182 182 189 192 191 190 189 188 186 186 190 194 195 197 199 198 194 193 192 191 206 214 213 221 229 232 232 232 236 237 248 271 291 306 311 314 315 314 317 326 323 323 339 344 313 314 329 326 330 329 324 319 226 211 204 199 194 188 187 185 185 186 183 178
323 328 328 326 328 328 327 325 324 319 311 299 272 233 191 168 165 177 175 176 183 184 184 183 185 188 189 187 189 189 188 189 188 187 189 190 191 194 198 197 194 197 196 194 207 217 218 229 231 230 237 236 231 241 258 271 292 306 308 311 312 318 322 322 323 325 338 346 322 324 338 319 319 329 316 308 238 214 206 201 195 187 187 186 185 187 183 178
322 328 328 327 330 331 329 325 322 316 307 289 251 206 180 169 169 173 170 174 181 182 184 186 186 190 191 187 188 190 190 190 190 190 190 190 189 191 198 197 190 196 206 204 208 218 225 234 236 235 242 240 238 250 262 276 295 300 302 306 307 325 332 325 324 324 332 343 322 320 332 302 308 327 303 298 243 216 205 200 198 189 189 189 186 186 183 180
323 328 330 330 332 334 331 324 319 315 304 274 209 179 168 164 163 165 164 169 180 182 184 187 187 190 191 188 190 191 191 192 194 194 194 193 192 194 197 193 189 198 210 209 208 213 225 237 242 244 239 233 241 249 260 281 288 291 294 301 309 326 335 329 319 318 326 338 332 329 327 293 304 331 305 293 235 217 205 198 198 193 193 191 186 185 184 182
324 328 333 333 334 335 331 322 319 312 287 214 181 168 159 156 151 154 156 153 169 182 184 187 189 191 191 191 191 189 191 195 198 199 199 197 198 201 199 194 198 209 211 210 214 220 227 239 236 232 223 220 233 238 255 280 278 288 286 295 320 325 326 322 311 314 324 331 335 337 324 267 285 324 320 276 224 217 207 201 200 196 194 191 186 185 185 183
325 331 336 334 335 335 329 324 325 307 209 180 171 161 153 147 144 146 142 129 140 172 181 187 188 192 195 191 191 191 194 199 202 202 202 201 200 202 203 202 202 212 221 217 222 230 234 241 234 196 197 211 223 227 251 276 278 292 279 289 324 324 320 318 309 312 321 318 322 331 324 245 284 306 304 271 229 216 210 206 203 201 197 191 186 185 185 185
326 333 337 334 336 335 329 323 319 146 162 167 161 153 145 141 141 141 132 119 126 151 168 175 175 187 191 186 190 190 191 203 206 203 203 204 201 199 205 212 208 208 222 222 227 236 232 232 235 238 244 245 245 245 258 275 277 287 281 298 322 325 320 319 311 305 315 324 319 322 322 296 300 285 283 300 243 210 212 204 201 202 199 193 188 185 186 185
330 336 338 337 339 339 339 323 147 138 148 154 152 148 141 136 138 136 134 130 133 144 163 168 169 179 181 178 177 172 181 210 208 203 204 206 204 202 203 217 218 211 216 216 223 237 230 227 238 246 256 251 243 245 251 266 273 285 300 310 323 327 320 321 317 297 307 319 309 306 306 295 282 232 270 297 265 208 208 199 199 201 199 195 191 187 185 185
333 338 340 341 345 351 33 120 128 129 135 142 146 143 134 136 140 139 150 148 126 142 161 164 168 170 170 169 163 165 183 206 205 207 206 203 204 206 206 218 223 220 225 218 215 231 227 226 238 243 245 237 230 239 252 271 276 284 302 315 322 323 321 322 314 299 308 316 305 299 304 301 290 207 268 282 247 226 208 198 199 202 199 197 193 189 187 186
335 341 345 349 2 36 101 112 119 119 124 135 139 136 131 135 137 138 194 140 121 144 161 158 166 168 162 156 156 170 184 167 187 212 206 202 205 203 206 218 219 221 231 224 220 229 226 219 223 221 224 225 229 246 261 272 274 282 302 316 316 309 309 310 305 305 301 297 316 343 314 312 330 207 245 253 229 244 222 202 200 201 200 197 192 189 188 188
336 345 352 6 36 99 112 111 115 114 120 130 133 135 133 131 140 166 209 125 123 154 165 156 161 166 154 144 147 160 172 166 185 209 201 202 209 204 206 217 214 218 232 229 226 229 233 240 236 229 230 232 241 257 264 266 272 286 302 310 306 291 287 291 297 305 293 277 336 351 326 309 311 200 214 252 237 238 243 213 205 199 196 195 192 189 188 189
342 352 7 37 91 117 116 115 113 112 121 126 130 136 126 118 132 281 161 128 135 161 164 159 160 161 151 146 151 150 158 171 186 197 195 198 203 202 206 212 210 212 222 230 232 233 239 250 248 242 243 242 247 263 270 268 274 285 292 297 299 288 272 270 268 270 281 326 2 340 329 300 287 294 248 261 248 228 242 234 211 200 192 191 193 190 190 192
353 8 39 84 119 122 119 118 114 117 124 123 129 129 119 121 76 41 120 134 150 158 162 172 166 162 159 156 158 152 156 165 162 177 190 195 197 199 201 203 202 205 214 222 227 232 237 243 245 241 245 247 249 265 269 260 264 272 276 283 291 289 273 265 266 264 284 335 349 333 330 302 277 321 341 279 246 239 234 24 205 199 193 193 193 191 191 194
33 49 76 112 128 126 122 118 115 122 125 126 132 121 109 166 94 91 119 132 153 156 164 175 165 164 169 168 165 157 159 166 166 176 188 192 199 205 206 206 204 210 222 219 216 227 233 233 235 235 241 245 242 249 251 243 247 253 263 277 285 295 294 286 290 291 296 322 333 323 320 316 308 343 354 320 250 243 239 231 172 185 193 197 196 194 195 195
109 84 104 128 135 132 124 118 117 119 120 127 127 111 80 129 111 108 108 121 152 158 160 165 163 165 172 175 175 166 164 172 172 179 189 195 201 208 210 211 211 213 225 228 219 228 234 226 221 220 227 237 236 238 241 252 264 256 261 279 283 288 294 301 308 313 318 319 322 316 310 326 340 343 339 326 285 240 234 229 205 174 185 197 199 197 198 195
129 104 121 134 140 136 124 120 117 110 116 122 111 88 56 107 109 113 111 132 154 159 160 161 159 166 175 182 187 180 174 171 174 182 192 200 206 211 212 213 214 212 218 233 227 221 237 242 222 213 220 226 227 234 238 250 262 256 251 260 268 285 292 291 297 305 307 309 315 316 315 329 336 337 341 342 336 254 227 225 214 188 181 189 195 198 199 194
142 123 130 141 147 138 128 123 114 107 117 115 92 53 113 114 113 126 138 150 155 157 161 161 164 175 181 182 189 191 180 167 176 189 195 204 214 219 216 215 216 215 216 223 223 220 235 238 218 219 233 231 226 230 232 235 247 253 245 245 258 292 300 289 289 288 284 290 313 326 333 342 340 350 350 343 342 322 243 223 215 205 189 184 188 193 195 194
148 137 140 149 152 143 136 126 111 109 116 106 85 96 113 109 126 134 144 151 149 154 159 163 174 185 188 186 191 194 191 186 189 195 196 202 216 223 218 217 217 216 216 221 232 241 242 243 232 229 239 235 228 229 229 232 238 245 251 265 278 277 278 282 289 294 287 294 327 332 343 355 353 6 1 342 337 339 312 226 214 212 200 186 183 187 192 195
159 154 151 157 158 152 147 131 114 115 114 101 91 114 106 102 128 130 134 138 137 150 161 169 176 183 192 193 190 189 194 197 193 198 202 199 217 231 217 217 218 217 215 218 229 238 244 258 256 230 231 234 230 232 235 234 233 243 260 276 281 276 266 266 285 299 304 307 323 336 348 4 8 5 1 354 332 327 324 232 213 214 207 194 185 186 190 193
167 162 162 164 165 160 154 141 126 120 110 99 96 117 112 115 126 126 128 131 130 140 160 172 162 174 187 189 186 186 195 200 191 200 208 203 226 247 216 212 215 217 211 210 221 231 241 255 249 208 216 225 220 224 230 228 223 235 257 261 260 268 274 278 285 291 300 304 311 334 344 8 18 5 352 358 336 306 318 244 216 214 208 199 192 188 189 190
176 173 177 173 169 169 164 155 147 131 111 118 138 131 124 119 122 127 130 132 130 130 151 160 149 167 177 178 183 186 198 206 201 205 209 208 224 226 205 206 203 208 206 203 216 227 229 239 244 238 214 218 219 218 222 226 214 214 235 242 236 243 260 271 275 273 282 299 304 323 330 355 12 4 351 356 346 308 316 252 221 217 211 206 200 191 185 186
181 184 193 180 173 175 170 164 162 149 129 139 137 130 129 122 123 129 127 129 129 126 134 137 134 154 166 174 185 189 199 208 210 212 214 220 226 210 164 193 195 195 197 199 211 219 219 227 244 253 230 217 218 211 219 235 230 223 239 252 250 249 255 261 264 259 265 283 296 312 323 342 4 2 356 353 350 350 335 202 201 214 215 208 197 188 182 184
181 192 206 187 179 180 174 172 177 164 152 158 151 138 134 130 130 131 129 127 126 125 127 125 125 138 157 174 187 193 196 203 212 217 219 223 227 228 203 187 188 180 184 199 211 217 224 235 249 253 244 236 234 228 235 233 227 237 250 257 264 262 253 247 256 268 266 274 288 296 307 339 2 358 358 353 350 4 81 162 135 134 168 174 171 175 179 184
184 192 201 190 186 184 174 176 189 184 181 176 162 150 144 141 141 140 140 138 133 136 134 128 127 127 138 159 174 187 188 202 216 218 226 231 229 233 226 210 202 192 190 205 211 213 222 231 244 251 250 249 242 235 240 229 222 235 247 250 253 252 248 248 260 283 282 279 286 283 287 347 359 354 359 358 350 1 50 162 144 132 137 140 143 160 175 181
186 191 195 190 190 186 177 178 189 195 198 187 166 158 154 153 157 154 154 154 153 156 149 142 141 125 102 109 129 162 168 186 211 204 214 226 225 229 220 212 216 212 211 213 205 212 221 218 227 238 233 225 216 212 221 221 221 234 244 246 243 239 241 247 254 270 275 278 285 284 293 341 357 353 0 5 355 0 19 170 165 151 148 149 150 165 185 187
188 196 201 195 191 190 190 193 191 195 204 197 184 175 160 155 170 170 168 170 168 167 161 158 157 139 114 105 106 131 135 113 158 175 173 182 198 208 190 206 221 218 221 219 205 212 226 214 216 228 223 206 195 195 204 209 215 222 223 237 246 236 230 236 248 260 268 277 277 276 295 335 359 355 358 6 10 13 17 183 181 170 169 173 176 182 190 189
194 200 207 203 199 197 201 204 198 200 206 201 198 195 179 167 178 178 173 171 171 175 171 167 162 145 130 122 108 110 117 106 128 147 136 144 169 166 132 218 252 235 227 220 208 207 220 220 221 233 244 251 265 257 214 233 242 233 233 243 251 244 230 232 251 264 269 277 274 272 294 324 341 347 353 1 28 44 41 201 195 182 182 191 193 188 186 186
202 205 206 204 204 203 207 210 206 205 208 204 205 207 199 187 183 186 184 175 175 180 174 169 175 169 156 154 150 138 126 110 114 130 131 137 152 168 192 330 328 293 247 219 204 201 215 228 226 234 248 259 277 284 281 287 276 265 268 261 251 249 235 229 243 260 266 270 279 284 282 298 326 338 344 350 126 81 46 214 207 196 189 191 191 188 186 187
207 211 210 203 201 200 206 211 209 208 210 209 210 212 208 200 193 195 193 184 184 182 167 167 190 192 190 182 174 175 165 131 123 143 143 138 140 167 253 339 357 338 262 200 190 195 212 233 225 228 246 252 259 269 271 273 265 250 252 256 251 250 237 231 248 265 261 259 273 283 283 303 329 332 328 248 155 132 57 179 197 203 200 196 191 188 187 187
208 211 212 207 206 206 207 211 210 208 211 213 213 213 210 206 208 210 202 193 196 194 183 187 198 198 204 199 189 195 199 175 152 164 164 160 157 143 175 353 15 13 48 166 182 194 204 227 231 231 251 256 256 261 258 251 245 237 242 250 251 251 241 236 253 268 261 256 266 283 295 316 326 320 312 210 169 153 118 119 185 195 199 201 198 193 189 188
211 212 212 209 211 212 210 209 208 209 214 215 216 218 215 211 213 216 212 205 208 209 205 207 211 209 209 207 200 201 201 190 183 180 165 158 157 131 120 111 50 34 57 146 185 200 203 232 253 250 259 254 245 248 241 227 221 223 234 246 252 256 250 244 254 266 270 271 276 293 317 330 318 314 303 196 173 163 137 121 181 195 195 199 202 201 197 193
215 215 213 210 213 214 211 212 209 207 214 217 215 219 219 215 214 215 217 218 217 217 215 215 220 219 215 213 207 200 196 197 200 199 179 163 168 161 152 139 95 62 67 114 178 203 215 244 256 250 250 235 208 213 212 197 214 224 218 231 255 252 246 245 254 261 271 286 294 310 326 308 306 312 291 183 167 173 161 134 168 194 196 199 201 198 199 201
218 218 216 213 217 217 215 218 213 206 217 222 218 218 220 219 216 212 213 219 220 219 218 217 217 214 214 219 215 205 201 204 211 219 216 212 209 200 195 181 150 120 106 124 191 211 227 245 243 241 242 218 178 195 199 197 233 230 213 226 252 255 253 259 273 276 280 292 304 311 286 285 307 314 260 178 163 173 177 161 172 185 193 207 210 202 197 204
Height
3155 3154 3154 3153 3153 3153 3152 3152 3152 3152 3152 3152 3151 3151 3151 3152 3152 3152 3152 3153 3153 3154 3154 3155 3156 3157 3157 3158 3158 3159 3159 3159 3160 3161 3161 3161 3162 3163 3164 3165 3167 3168 3169 3170 3170 3171 3171 3171 3171 3172 3172 3173 3173 3173 3173 3172 3172 3172 3172 3174 3175 3175 3174 3173 3172 3171 3170 3170 3170 3168 3168 3168 3168 3167 3168 3168 3168 3168 3169 3169 3170 3171 3172 3173 3174 3175 3176 3178
3153 3153 3152 3152 3151 3151 3151 3151 3151 3150 3150 3150 3150 3150 3150 3150 3150 3150 3151 3151 3152 3152 3153 3154 3155 3155 3156 3157 3158 3158 3158 3159 3160 3160 3159 3160 3162 3163 3164 3166 3167 3168 3169 3170 3170 3171 3171 3171 3172 3172 3172 3173 3173 3173 3173 3173 3172 3172 3173 3175 3175 3174 3173 3172 3171 3170 3169 3169 3168 3168 3167 3167 3167 3166 3167 3167 3167 3167 3168 3169 3169 3170 3171 3172 3173 3175 3176 3178
3152 3151 3151 3150 3150 3150 3150 3149 3149 3149 3149 3149 3149 3149 3149 3149 3149 3149 3149 3149 3150 3151 3151 3152 3153 3154 3155 3156 3157 3157 3158 3158 3159 3158 3158 3160 3162 3163 3164 3165 3167 3167 3168 3169 3170 3170 3171 3171 3172 3172 3173 3173 3173 3173 3173 3173 3173 3172 3173 3175 3175 3173 3172 3171 3170 3169 3169 3168 3167 3167 3166 3166 3165 3165 3165 3166 3166 3166 3167 3168 3169 3170 3171 3172 3173 3174 3176 3178
3150 3150 3149 3149 3148 3148 3148 3148 3148 3148 3147 3147 3147 3147 3147 3147 3147 3147 3147 3148 3148 3149 3149 3150 3151 3152 3153 3155 3156 3156 3157 3158 3158 3157 3158 3160 3161 3162 3163 3165 3166 3167 3167 3168 3169 3170 3171 3172 3172 3172 3173 3173 3173 3173 3173 3173 3173 3173 3173 3174 3174 3173 3172 3171 3170 3169 3168 3167 3166 3166 3165 3164 3164 3164 3164 3165 3165 3165 3166 3167 3168 3169 3171 3172 3173 3174 3176 3178
3149 3148 3148 3147 3147 3146 3146 3146 3146 3146 3146 3146 3146 3146 3146 3146 3146 3146 3146 3146 3147 3147 3148 3149 3149 3150 3152 3153 3154 3155 3157 3157 3156 3157 3158 3159 3160 3161 3162 3164 3165 3166 3167 3168 3169 3171 3172 3172 3173 3173 3173 3173 3173 3173 3173 3173 3173 3173 3173 3173 3173 3172 3171 3171 3169 3168 3167 3166 3166 3165 3164 3163 3162 3162 3162 3163 3164 3164 3165 3166 3167 3168 3170 3171 3173 3174 3176 3178
3147 3147 3146 3146 3145 3145 3145 3144 3144 3144 3144 3144 3144 3144 3144 3144 3144 3144 3144 3145 3145 3145 3146 3147 3148 3149 3150 3152 3153 3154 3155 3156 3155 3156 3157 3158 3159 3160 3162 3163 3165 3166 3167 3169 3170 3171 3172 3173 3173 3173 3173 3174 3173 3173 3173 3173 3173 3173 3173 3172 3172 3172 3171 3170 3169 3168 3167 3166 3165 3164 3163 3161 3161 3160 3160 3161 3162 3163 3163 3164 3166 3167 3169 3170 3172 3174 3176 3177
3146 3145 3145 3144 3144 3143 3143 3143 3142 3142 3142 3142 3142 3142 3142 3142 3142 3143 3143 3143 3143 3144 3144 3145 3146 3147 3149 3150 3152 3153 3154 3154 3154 3155 3157 3157 3159 3160 3161 3163 3164 3166 3167 3169 3170 3171 3172 3173 3174 3174 3174 3174 3174 3173 3173 3173 3173 3173 3172 3172 3172 3171 3171 3170 3169 3167 3166 3165 3164 3163 3162 3160 3159 3159 3158 3159 3160 3161 3162 3163 3164 3166 3167 3169 3170 3173 3175 3177
3145 3144 3144 3143 3142 3142 3142 3141 3141 3141 3141 3140 3140 3140 3140 3140 3140 3141 3141 3141 3142 3142 3143 3144 3145 3146 3147 3149 3150 3152 3153 3153 3154 3154 3156 3157 3158 3159 3161 3162 3164 3166 3167 3169 3170 3171 3172 3173 3173 3174 3174 3174 3174 3173 3173 3173 3173 3172 3172 3172 3172 3171 3171 3169 3168 3167 3166 3165 3164 3163 3161 3160 3158 3157 3157 3157 3158 3159 3161 3162 3164 3165 3166 3168 3170 3172 3174 3176
3144 3144 3143 3142 3141 3141 3140 3140 3140 3139 3139 3139 3138 3138 3138 3138 3138 3139 3139 3139 3140 3141 3141 3142 3144 3145 3146 3147 3149 3151 3151 3152 3153 3154 3155 3156 3158 3159 3161 3162 3164 3166 3168 3169 3170 3171 3172 3173 3173 3174 3174 3174 3174 3173 3173 3173 3173 3172 3172 3172 3171 3171 3170 3169 3168 3167 3166 3164 3163 3162 3160 3159 3157 3156 3155 3156 3156 3158 3159 3161 3162 3164 3166 3168 3169 3171 3173 3175
3143 3143 3142 3141 3140 3140 3139 3139 3138 3138 3137 3137 3136 3136 3136 3136 3136 3136 3137 3137 3138 3139 3140 3141 3142 3143 3145 3146 3148 3150 3150 3151 3152 3153 3154 3156 3158 3159 3161 3163 3164 3166 3168 3169 3170 3171 3171 3172 3173 3173 3174 3174 3173 3173 3172 3173 3173 3172 3172 3172 3171 3170 3170 3169 3168 3167 3165 3164 3162 3161 3160 3158 3157 3156 3155 3155 3155 3156 3158 3159 3161 3163 3165 3167 3168 3170 3172 3174
3142 3142 3141 3140 3139 3138 3138 3137 3137 3136 3136 3135 3134 3134 3134 3134 3134 3134 3135 3136 3136 3137 3138 3140 3141 3142 3143 3145 3147 3148 3149 3150 3151 3152 3154 3155 3157 3159 3161 3162 3164 3166 3167 3168 3169 3170 3170 3171 3172 3173 3173 3173 3173 3173 3172 3172 3172 3172 3172 3171 3170 3170 3169 3168 3167 3166 3165 3163 3162 3160 3159 3158 3157 3155 3154 3154 3154 3155 3156 3158 3160 3162 3164 3166 3168 3170 3171 3173
3141 3140 3140 3139 3138 3137 3137 3136 3135 3135 3134 3133 3133 3132 3132 3132 3132 3133 3133 3134 3135 3136 3137 3138 3140 3141 3142 3144 3145 3146 3148 3149 3151 3152 3153 3155 3156 3158 3159 3161 3162 3164 3166 3167 3168 3169 3170 3170 3171 3172 3173 3173 3173 3172 3172 3171 3171 3171 3171 3171 3170 3169 3168 3167 3167 3165 3164 3163 3161 3159 3157 3156 3156 3155 3154 3153 3153 3154 3154 3156 3158 3159 3162 3165 3167 3170 3171 3172
3140 3139 3138 3137 3136 3136 3135 3134 3134 3133 3132 3131 3131 3131 3131 3131 3131 3131 3131 3132 3133 3135 3136 3137 3138 3140 3141 3143 3144 3145 3147 3149 3150 3151 3153 3154 3156 3157 3158 3160 3162 3163 3164 3166 3167 3168 3169 3170 3171 3171 3172 3172 3172 3172 3171 3171 3171 3171 3171 3170 3170 3169 3168 3167 3166 3165 3163 3162 3160 3158 3157 3156 3155 3154 3153 3152 3152 3152 3153 3155 3156 3158 3161 3164 3166 3170 3171 3171
3138 3138 3137 3136 3135 3134 3134 3133 3132 3131 3130 3130 3130 3129 3129 3129 3129 3129 3130 3131 3132 3133 3135 3136 3138 3139 3140 3141 3142 3144 3146 3148 3149 3151 3153 3154 3156 3157 3158 3159 3161 3163 3164 3165 3166 3167 3168 3169 3170 3170 3171 3171 3171 3171 3171 3171 3171 3171 3171 3170 3170 3169 3167 3166 3165 3164 3162 3161 3159 3158 3157 3157 3154 3153 3152 3151 3151 3151 3153 3154 3156 3157 3161 3163 3166 3168 3169 3171
3137 3137 3136 3135 3134 3133 3132 3131 3130 3130 3129 3129 3128 3128 3128 3128 3128 3128 3128 3129 3131 3132 3133 3135 3136 3138 3139 3140 3142 3143 3145 3147 3149 3151 3153 3154 3156 3157 3157 3159 3160 3162 3163 3164 3165 3166 3167 3168 3169 3170 3171 3171 3171 3171 3171 3171 3171 3171 3171 3170 3170 3169 3167 3165 3164 3164 3162 3161 3159 3157 3157 3156 3153 3152 3151 3150 3150 3151 3152 3154 3155 3157 3160 3162 3165 3167 3168 3171
3136 3135 3135 3133 3132 3132 3131 3130 3129 3128 3128 3127 3127 3126 3126 3126 3126 3126 3127 3128 3129 3131 3132 3134 3135 3137 3138 3140 3141 3143 3145 3147 3148 3150 3152 3154 3155 3156 3157 3158 3160 3161 3162 3163 3165 3166 3167 3168 3169 3170 3170 3170 3171 3171 3172 3172 3172 3171 3171 3170 3170 3169 3168 3166 3163 3162 3162 3160 3158 3157 3156 3156 3154 3151 3150 3149 3150 3150 3151 3153 3154 3156 3158 3161 3164 3166 3168 3170
3135 3134 3133 3132 3131 3130 3129 3128 3128 3127 3126 3126 3125 3125 3125 3125 3125 3125 3126 3127 3128 3130 3132 3133 3134 3136 3137 3138 3140 3142 3144 3146 3148 3149 3151 3153 3154 3156 3157 3158 3159 3161 3162 3163 3164 3166 3167 3168 3169 3170 3170 3170 3171 3172 3172 3171 3171 3171 3171 3170 3169 3168 3167 3166 3164 3161 3160 3159 3158 3156 3155 3155 3153 3151 3149 3148 3149 3150 3151 3152 3153 3155 3157 3160 3163 3165 3167 3170
3134 3133 3132 3131 3130 3129 3128 3127 3126 3126 3125 3124 3124 3124 3123 3123 3124 3124 3125 3126 3128 3130 3132 3133 3134 3137 3138 3138 3139 3141 3143 3145 3147 3149 3151 3152 3154 3155 3156 3158 3159 3160 3162 3163 3165 3166 3167 3168 3169 3170 3170 3170 3170 3172 3172 3171 3171 3171 3170 3169 3168 3167 3166 3166 3165 3162 3159 3158 3157 3156 3155 3154 3152 3151 3149 3148 3149 3149 3150 3152 3153 3154 3156 3159 3162 3165 3167 3170
3133 3132 3131 3130 3129 3128 3127 3126 3125 3124 3124 3123 3123 3122 3122 3122 3123 3123 3124 3125 3127 3129 3130 3132 3133 3135 3136 3137 3138 3140 3142 3144 3146 3148 3150 3152 3153 3155 3156 3157 3159 3160 3162 3164 3165 3166 3167 3168 3169 3169 3170 3171 3171 3171 3171 3171 3171 3170 3170 3168 3167 3167 3165 3165 3164 3162 3159 3158 3157 3156 3155 3154 3152 3150 3149 3148 3148 3149 3149 3150 3152 3153 3155 3158 3161 3164 3167 3169
3131 3131 3130 3129 3128 3127 3125 3125 3124 3123 3122 3122 3121 3121 3121 3122 3122 3123 3123 3125 3126 3127 3128 3130 3132 3133 3134 3136 3138 3140 3142 3144 3146 3148 3150 3151 3153 3155 3157 3158 3160 3161 3163 3165 3166 3166 3167 3168 3168 3169 3170 3171 3171 3170 3170 3170 3170 3169 3168 3168 3167 3166 3164 3164 3163 3160 3158 3157 3157 3155 3154 3152 3151 3150 3148 3147 3147 3148 3148 3149 3151 3153 3154 3157 3161 3164 3166 3169
3130 3129 3129 3127 3126 3125 3124 3123 3123 3122 3121 3120 3120 3120 3120 3121 3122 3122 3123 3124 3125 3127 3128 3129 3131 3132 3134 3135 3137 3139 3141 3144 3146 3148 3149 3151 3153 3155 3157 3158 3160 3162 3163 3164 3165 3166 3167 3167 3167 3169 3170 3170 3169 3169 3169 3168 3168 3168 3168 3167 3167 3165 3164 3163 3161 3159 3157 3156 3156 3154 3152 3151 3150 3149 3148 3147 3147 3147 3148 3149 3151 3153 3155 3157 3161 3163 3165 3168
3129 3128 3127 3126 3125 3124 3123 3122 3121 3120 3120 3119 3119 3119 3120 3120 3121 3122 3123 3124 3125 3127 3128 3129 3131 3132 3134 3135 3137 3138 3141 3143 3145 3147 3148 3150 3153 3155 3157 3158 3161 3163 3163 3164 3165 3166 3166 3165 3166 3169 3169 3168 3168 3168 3168 3168 3168 3168 3167 3167 3166 3164 3163 3161 3159 3157 3156 3155 3155 3153 3152 3151 3149 3148 3147 3146 3146 3147 3148 3149 3151 3153 3155 3157 3159 3162 3164 3167
3128 3127 3126 3125 3124 3123 3122 3121 3120 3119 3119 3118 3119 3119 3119 3120 3120 3121 3123 3124 3126 3127 3128 3129 3131 3132 3134 3135 3137 3139 3141 3143 3145 3146 3148 3150 3152 3154 3155 3158 3161 3162 3163 3163 3165 3166 3166 3165 3166 3167 3167 3167 3167 3167 3167 3167 3168 3167 3167 3166 3165 3164 3163 3161 3159 3157 3155 3154 3154 3152 3151 3150 3148 3147 3147 3145 3146 3146 3147 3148 3150 3152 3154 3156 3158 3161 3163 3166
3127 3126 3125 3124 3123 3122 3121 3120 3119 3118 3118 3118 3118 3119 3119 3120 3120 3122 3123 3125 3127 3128 3129 3130 3131 3133 3135 3135 3137 3139 3142 3143 3144 3146 3147 3149 3151 3153 3155 3158 3160 3161 3162 3163 3164 3166 3166 3165 3165 3165 3165 3166 3167 3167 3168 3168 3168 3167 3166 3166 3165 3164 3163 3162 3160 3157 3155 3153 3152 3151 3149 3148 3148 3146 3145 3145 3145 3145 3146 3147 3148 3150 3153 3155 3158 3161 3163 3166
3126 3125 3124 3123 3122 3121 3120 3119 3118 3118 3118 3118 3118 3119 3119 3120 3121 3122 3123 3126 3128 3129 3130 3131 3133 3134 3135 3136 3138 3139 3141 3143 3144 3146 3147 3149 3151 3154 3156 3157 3159 3161 3162 3163 3164 3165 3165 3165 3164 3165 3165 3166 3167 3167 3168 3168 3167 3166 3165 3165 3164 3163 3162 3161 3159 3156 3155 3153 3151 3151 3148 3147 3147 3147 3145 3144 3144 3144 3145 3146 3148 3149 3152 3154 3157 3160 3162 3165
3126 3125 3123 3122 3121 3120 3119 3119 3118 3118 3118 3118 3119 3119 3120 3121 3122 3123 3124 3127 3129 3130 3131 3132 3134 3135 3135 3137 3138 3140 3143 3144 3144 3146 3148 3149 3152 3154 3156 3157 3158 3161 3162 3163 3164 3163 3164 3165 3164 3165 3166 3166 3167 3167 3167 3167 3167 3166 3164 3164 3163 3162 3161 3159 3158 3156 3155 3153 3152 3151 3149 3147 3146 3146 3144 3143 3142 3143 3143 3144 3146 3149 3151 3153 3156 3159 3161 3164
3125 3124 3123 3121 3120 3119 3119 3118 3118 3118 3118 3118 3119 3120 3121 3121 3122 3124 3125 3126 3129 3131 3131 3133 3134 3134 3135 3137 3138 3141 3144 3144 3144 3146 3147 3149 3152 3154 3156 3158 3158 3160 3160 3162 3163 3161 3161 3163 3163 3164 3165 3166 3167 3167 3166 3166 3166 3165 3164 3163 3162 3161 3160 3158 3157 3156 3154 3153 3151 3150 3150 3147 3145 3145 3143 3141 3141 3142 3142 3143 3145 3147 3149 3152 3154 3157 3159 3162
3124 3123 3122 3121 3120 3119 3118 3118 3118 3118 3118 3119 3120 3121 3122 3122 3123 3124 3124 3124 3128 3131 3132 3132 3133 3134 3135 3137 3138 3140 3142 3143 3144 3146 3146 3149 3152 3153 3156 3157 3158 3160 3160 3160 3161 3160 3161 3162 3163 3163 3164 3165 3166 3166 3165 3165 3165 3164 3163 3161 3160 3160 3159 3157 3157 3155 3154 3153 3150 3148 3148 3145 3142 3143 3142 3140 3140 3140 3140 3140 3142 3145 3148 3150 3153 3156 3159 3162
3124 3123 3122 3121 3120 3119 3119 3118 3118 3118 3119 3120 3121 3122 3123 3123 3124 3125 3123 3124 3129 3131 3132 3133 3134 3135 3136 3137 3138 3140 3141 3143 3144 3145 3146 3149 3150 3152 3155 3156 3157 3159 3159 3159 3160 3160 3160 3161 3161 3162 3163 3164 3164 3164 3164 3164 3164 3163 3161 3160 3160 3159 3158 3157 3156 3154 3153 3152 3149 3147 3147 3145 3141 3141 3141 3140 3139 3139 3138 3139 3140 3143 3147 3149 3152 3155 3158 3161
3123 3122 3121 3121 3120 3120 3120 3120 3119 3120 3120 3121 3122 3123 3123 3124 3124 3124 3122 3125 3129 3131 3131 3133 3134 3135 3136 3137 3139 3140 3142 3143 3143 3144 3146 3148 3149 3151 3153 3154 3156 3158 3158 3158 3158 3159 3159 3160 3159 3160 3162 3162 3162 3162 3163 3163 3162 3162 3161 3160 3160 3158 3157 3156 3155 3154 3152 3148 3147 3146 3147 3145 3140 3139 3139 3138 3138 3138 3137 3137 3138 3141 3144 3148 3151 3154 3157 3160
3122 3122 3121 3121 3121 3121 3121 3121 3121 3121 3122 3122 3122 3123 3124 3124 3124 3122 3122 3127 3129 3131 3132 3133 3134 3135 3136 3139 3140 3141 3143 3143 3143 3144 3146 3147 3149 3151 3153 3154 3155 3157 3158 3158 3157 3158 3159 3159 3159 3160 3160 3160 3161 3161 3162 3162 3161 3162 3161 3160 3159 3157 3155 3154 3153 3153 3149 3145 3145 3146 3145 3144 3140 3138 3138 3137 3137 3138 3137 3136 3136 3139 3142 3146 3150 3153 3156 3159
3122 3122 3121 3121 3121 3121 3122 3122 3122 3122 3122 3123 3123 3124 3124 3124 3125 3124 3125 3128 3129 3131 3133 3134 3134 3136 3137 3140 3141 3141 3143 3144 3143 3144 3146 3147 3149 3150 3152 3153 3154 3155 3156 3156 3156 3157 3157 3158 3158 3159 3160 3159 3160 3161 3161 3162 3161 3161 3161 3160 3159 3155 3153 3152 3149 3148 3146 3143 3145 3145 3143 3142 3139 3137 3138 3138 3137 3136 3136 3136 3136 3138 3142 3146 3149 3152 3155 3157
3122 3122 3121 3122 3122 3122 3123 3123 3123 3123 3123 3123 3124 3124 3124 3124 3125 3126 3127 3128 3129 3130 3132 3133 3135 3136 3138 3140 3141 3142 3143 3144 3144 3145 3147 3148 3149 3150 3151 3152 3153 3154 3153 3154 3155 3155 3155 3156 3157 3158 3159 3158 3159 3160 3161 3161 3160 3161 3160 3159 3158 3155 3154 3153 3148 3146 3145 3144 3144 3144 3142 3140 3136 3136 3138 3138 3137 3136 3135 3136 3137 3138 3143 3146 3149 3151 3154 3156
3122 3122 3122 3122 3123 3123 3123 3123 3123 3123 3123 3124 3124 3125 3125 3125 3125 3127 3128 3128 3129 3130 3132 3133 3135 3137 3139 3140 3141 3142 3143 3144 3144 3145 3147 3147 3149 3149 3150 3151 3152 3153 3153 3153 3154 3154 3153 3153 3153 3156 3157 3157 3158 3159 3160 3160 3160 3159 3159 3159 3158 3155 3155 3153 3148 3146 3146 3144 3143 3142 3141 3138 3136 3136 3137 3136 3136 3135 3134 3135 3137 3139 3142 3146 3148 3150 3152 3155
3122 3122 3122 3122 3123 3124 3124 3124 3124 3124 3124 3124 3124 3125 3126 3126 3127 3128 3129 3129 3130 3131 3132 3134 3136 3137 3139 3140 3141 3141 3142 3143 3144 3145 3146 3147 3147 3148 3149 3150 3150 3152 3153 3153 3152 3153 3153 3152 3152 3154 3155 3155 3157 3158 3159 3160 3159 3158 3158 3158 3157 3155 3155 3153 3149 3148 3148 3146 3143 3141 3139 3137 3135 3135 3135 3134 3134 3134 3133 3134 3135 3137 3140 3143 3145 3147 3150 3154
3122 3122 3122 3123 3124 3124 3125 3125 3125 3125 3125 3124 3125 3127 3127 3127 3128 3128 3128 3129 3130 3131 3132 3134 3136 3138 3138 3139 3140 3141 3142 3142 3143 3144 3145 3146 3146 3147 3147 3149 3149 3150 3152 3152 3152 3153 3153 3151 3151 3153 3153 3154 3156 3157 3158 3158 3158 3157 3157 3156 3155 3155 3155 3152 3149 3149 3148 3145 3143 3140 3137 3136 3135 3135 3134 3133 3133 3133 3132 3132 3134 3136 3138 3140 3142 3145 3148 3151
3122 3122 3122 3123 3124 3124 3125 3126 3126 3126 3126 3125 3126 3128 3128 3127 3127 3127 3128 3129 3129 3131 3133 3134 3135 3136 3137 3138 3139 3141 3141 3142 3142 3143 3144 3145 3145 3145 3146 3147 3148 3149 3150 3151 3152 3152 3152 3151 3150 3152 3153 3153 3154 3155 3156 3156 3156 3157 3156 3155 3154 3154 3154 3153 3150 3148 3146 3143 3142 3139 3137 3137 3136 3135 3135 3133 3132 3131 3131 3131 3132 3134 3136 3138 3140 3143 3146 3150
3122 3122 3123 3123 3124 3125 3126 3126 3127 3127 3126 3126 3128 3129 3128 3128 3128 3128 3128 3129 3130 3131 3133 3134 3134 3135 3136 3137 3138 3140 3141 3141 3141 3142 3143 3143 3143 3143 3144 3146 3146 3147 3149 3151 3152 3152 3152 3151 3150 3150 3152 3152 3153 3154 3154 3154 3155 3156 3155 3154 3154 3153 3152 3152 3151 3149 3147 3144 3142 3139 3138 3138 3136 3135 3135 3135 3133 3131 3130 3130 3131 3132 3134 3137 3139 3141 3145 3149
3122 3122 3123 3123 3124 3125 3126 3127 3127 3128 3127 3128 3130 3130 3128 3129 3129 3128 3129 3130 3130 3131 3133 3134 3134 3134 3135 3136 3137 3139 3139 3140 3141 3141 3142 3142 3142 3142 3143 3145 3145 3146 3148 3150 3151 3151 3152 3152 3149 3149 3151 3152 3152 3153 3153 3152 3153 3154 3154 3154 3155 3154 3152 3151 3150 3148 3147 3145 3143 3141 3139 3138 3137 3137 3137 3136 3134 3131 3129 3129 3129 3130 3132 3136 3138 3140 3144 3148
3121 3122 3123 3123 3124 3125 3126 3127 3128 3128 3129 3130 3130 3130 3129 3129 3129 3130 3130 3130 3131 3132 3133 3134 3134 3135 3135 3136 3137 3138 3138 3139 3140 3141 3141 3141 3142 3142 3142 3143 3144 3145 3147 3148 3150 3151 3152 3152 3150 3149 3150 3150 3150 3150 3150 3150 3151 3151 3152 3152 3152 3152 3152 3151 3149 3148 3147 3145 3144 3143 3141 3138 3138 3139 3137 3136 3134 3131 3129 3129 3129 3130 3131 3134 3137 3140 3144 3148
3121 3122 3123 3123 3124 3125 3126 3127 3128 3128 3130 3130 3130 3130 3130 3130 3130 3130 3131 3131 3131 3132 3133 3134 3134 3135 3135 3136 3136 3137 3138 3138 3139 3140 3140 3140 3141 3141 3141 3142 3144 3145 3146 3148 3149 3150 3151 3151 3150 3149 3149 3148 3148 3149 3150 3150 3150 3150 3150 3150 3150 3150 3150 3150 3148 3147 3147 3146 3144 3143 3142 3139 3139 3139 3138 3136 3135 3132 3130 3130 3129 3129 3130 3133 3137 3141 3144 3148
3121 3122 3123 3123 3124 3125 3126 3127 3128 3129 3130 3131 3131 3130 3130 3130 3130 3131 3132 3132 3132 3133 3133 3133 3134 3135 3135 3135 3136 3136 3137 3138 3138 3139 3140 3140 3140 3141 3141 3142 3143 3144 3145 3147 3148 3149 3149 3150 3149 3148 3147 3147 3147 3148 3149 3149 3149 3149 3149 3149 3150 3149 3149 3149 3147 3146 3145 3145 3144 3144 3142 3140 3140 3139 3138 3136 3135 3133 3132 3131 3130 3130 3130 3133 3137 3141 3145 3148
3120 3121 3122 3123 3124 3125 3126 3127 3128 3129 3130 3130 3130 3130 3130 3131 3131 3132 3132 3133 3133 3133 3134 3134 3134 3135 3135 3135 3135 3135 3136 3137 3137 3138 3139 3139 3140 3141 3140 3141 3142 3143 3145 3146 3147 3147 3148 3148 3148 3147 3146 3146 3146 3147 3148 3148 3148 3149 3148 3148 3149 3148 3148 3147 3146 3146 3145 3144 3143 3143 3141 3140 3140 3139 3138 3137 3135 3134 3133 3134 3133 3133 3134 3137 3140 3143 3146 3148
3120 3121 3122 3123 3123 3124 3126 3128 3129 3129 3129 3130 3131 3131 3131 3131 3131 3132 3132 3132 3133 3133 3134 3134 3134 3135 3135 3134 3134 3135 3136 3136 3136 3137 3138 3138 3139 3139 3139 3139 3141 3142 3143 3145 3145 3145 3145 3146 3146 3145 3144 3143 3144 3145 3146 3146 3147 3147 3146 3146 3146 3146 3147 3147 3146 3147 3145 3143 3143 3142 3140 3140 3140 3140 3139 3138 3136 3134 3135 3136 3136 3137 3138 3140 3143 3146 3147 3148
3120 3121 3121 3122 3123 3124 3124 3125 3127 3128 3128 3130 3131 3131 3131 3131 3131 3132 3132 3133 3133 3133 3134 3134 3134 3135 3135 3135 3135 3135 3135 3136 3136 3136 3137 3138 3138 3138 3138 3138 3139 3140 3141 3142 3143 3144 3144 3144 3145 3143 3140 3138 3139 3141 3142 3144 3144 3144 3145 3145 3145 3145 3146 3146 3145 3146 3144 3142 3143 3142 3139 3139 3140 3140 3139 3139 3137 3136 3136 3137 3138 3139 3140 3142 3143 3146 3147 3148
3119 3121 3121 3122 3122 3123 3123 3124 3125 3127 3128 3129 3130 3130 3131 3131 3131 3132 3132 3133 3133 3133 3134 3134 3134 3135 3135 3135 3136 3136 3136 3136 3137 3137 3137 3138 3138 3138 3137 3137 3137 3138 3139 3139 3140 3142 3143 3143 3143 3142 3139 3138 3139 3141 3142 3143 3143 3143 3144 3144 3145 3144 3145 3145 3145 3144 3143 3142 3142 3141 3141 3141 3141 3140 3139 3139 3138 3137 3137 3138 3138 3139 3141 3142 3144 3145 3147 3148
3118 3119 3120 3121 3122 3122 3123 3124 3124 3125 3126 3128 3129 3130 3130 3131 3131 3132 3132 3132 3133 3133 3134 3134 3134 3135 3135 3136 3137 3137 3136 3136 3137 3137 3138 3138 3139 3138 3137 3137 3137 3136 3136 3136 3138 3140 3141 3141 3141 3141 3141 3140 3141 3142 3142 3142 3143 3143 3143 3143 3144 3144 3143 3144 3144 3143 3143 3142 3141 3140 3141 3141 3141 3141 3139 3138 3138 3138 3138 3138 3138 3139 3140 3142 3143 3145 3146 3148
3117 3118 3119 3120 3121 3122 3122 3122 3123 3124 3125 3127 3128 3129 3130 3130 3131 3131 3131 3132 3133 3133 3134 3134 3134 3134 3135 3135 3136 3137 3137 3137 3137 3137 3137 3138 3138 3138 3138 3137 3136 3134 3133 3134 3136 3138 3140 3140 3140 3140 3141 3141 3141 3141 3142 3142 3141 3142 3142 3142 3142 3142 3142 3143 3143 3142 3142 3142 3140 3140 3140 3140 3141 3141 3139 3137 3137 3138 3138 3137 3138 3139 3140 3142 3143 3145 3146 3147
3116 3117 3117 3118 3119 3120 3121 3121 3122 3123 3124 3125 3127 3127 3128 3129 3130 3130 3131 3132 3132 3132 3133 3134 3134 3134 3134 3134 3135 3136 3136 3137 3137 3137 3137 3137 3138 3138 3139 3138 3137 3135 3134 3134 3135 3137 3138 3139 3139 3140 3140 3140 3140 3140 3140 3140 3140 3140 3141 3141 3141 3141 3141 3142 3142 3141 3141 3140 3140 3140 3139 3140 3140 3139 3138 3137 3136 3136 3137 3137 3137 3139 3140 3142 3143 3144 3146 3147
3114 3115 3116 3117 3118 3119 3120 3120 3121 3123 3124 3125 3126 3126 3127 3128 3128 3129 3130 3131 3131 3132 3132 3133 3133 3133 3134 3134 3135 3135 3135 3136 3136 3136 3136 3137 3137 3138 3138 3138 3137 3137 3136 3136 3136 3136 3138 3139 3138 3139 3139 3138 3138 3139 3139 3139 3139 3140 3140 3140 3140 3140 3140 3141 3141 3140 3140 3139 3139 3139 3139 3140 3139 3138 3137 3137 3136 3136 3137 3137 3137 3138 3140 3141 3143 3144 3145 3147
3113 3114 3115 3116 3117 3118 3119 3120 3120 3122 3123 3124 3124 3125 3125 3126 3127 3128 3129 3129 3130 3131 3131 3132 3132 3133 3134 3134 3134 3134 3134 3134 3135 3135 3135 3136 3136 3136 3137 3137 3137 3137 3137 3137 3137 3137 3138 3138 3138 3138 3138 3136 3136 3138 3138 3138 3139 3139 3139 3139 3139 3140 3140 3140 3140 3139 3139 3139 3139 3139 3140 3140 3138 3137 3137 3136 3136 3136 3137 3137 3137 3138 3139 3141 3142 3143 3145 3146
3112 3113 3114 3115 3116 3117 3118 3119 3120 3122 3122 3122 3122 3123 3124 3125 3126 3127 3128 3128 3129 3129 3130 3131 3131 3133 3133 3133 3132 3133 3133 3133 3134 3134 3134 3135 3135 3135 3135 3136 3136 3136 3136 3137 3137 3137 3138 3137 3138 3138 3136 3134 3135 3137 3137 3138 3138 3137 3138 3139 3139 3139 3139 3139 3139 3138 3138 3138 3138 3139 3139 3139 3137 3136 3136 3136 3135 3136 3137 3137 3137 3137 3139 3140 3141 3142 3144 3145